This is the latest recevied weather packets stored in our database for station/object YN1JLX-13. If no packets are shown the sender has not sent any weather packets the latest 10 day(s).
| Time | Temp. | Humidity | Pressure | Rain* | Wind** | Luminosity | Snow |
|---|---|---|---|---|---|---|---|
| 1777725158 | 20° C | 84% | 1012 hPa | 0 mm | - | - | - |
| 1777724557 | 19.44° C | 84% | 1011 hPa | 0 mm | - | - | - |
| 1777723957 | 17.78° C | 88% | 1011 hPa | 0 mm | - | - | - |
| 1777723356 | 18.89° C | 88% | 1011 hPa | 0 mm | - | - | - |
| 1777722756 | 18.33° C | 88% | 1011 hPa | 0 mm | - | - | - |
| 1777722156 | 18.89° C | 88% | 1011 hPa | 0 mm | - | - | - |
| 1777721555 | 17.78° C | 88% | 1011 hPa | 0 mm | - | - | - |
| 1777720955 | 18.89° C | 88% | 1011 hPa | 0 mm | - | - | - |
| 1777720355 | 17.78° C | 88% | 1011 hPa | 0 mm | - | - | - |
| 1777719754 | 18.89° C | 88% | 1011 hPa | 0 mm | - | - | - |
| 1777719154 | 18.89° C | 88% | 1011 hPa | 0 mm | - | - | - |
| 1777718554 | 17.78° C | 87% | 1011 hPa | 0 mm | - | - | - |
| 1777717953 | 18.89° C | 87% | 1011 hPa | 0 mm | - | - | - |
| 1777717353 | 17.78° C | 88% | 1010 hPa | 0 mm | - | - | - |
| 1777716753 | 18.89° C | 88% | 1010 hPa | 0 mm | - | - | - |
| 1777716153 | 20° C | 88% | 1010 hPa | 0 mm | - | - | - |
| 1777715552 | 20° C | 88% | 1010 hPa | 0 mm | - | - | - |
| 1777714952 | 19.44° C | 88% | 1010 hPa | 0 mm | - | - | - |
| 1777714351 | 20° C | 88% | 1010 hPa | 0 mm | - | - | - |
| 1777713751 | 18.33° C | 84% | 1010 hPa | 0 mm | - | - | - |
| 1777713151 | 19.44° C | 84% | 1010 hPa | 0 mm | - | - | - |
| 1777712551 | 19.44° C | 84% | 1010 hPa | 0 mm | - | - | - |
| 1777711950 | 18.89° C | 82% | 1010 hPa | 0 mm | - | - | - |
| 1777711350 | 17.78° C | 79% | 1010 hPa | 0 mm | - | - | - |
| 1777710750 | 18.89° C | 78% | 1010 hPa | 0 mm | - | - | - |
* Rain latest hour (hover to see other rain measurements)
** Current wind speed in m/s (hover to see current wind gust speed)